Weather History for Truckee-Tahoe, CA

Change the Weather History Date:

Monday, December 12, 2011

  Actual Average Record
Temperature  
Mean Temperature 24 °F -  
Max Temperature 35 °F 39 °F 56 °F (1958)
Min Temperature 14 °F 14 °F -18 °F (1972)
Degree Days  
Heating Degree Days 40    
Moisture  
Dew Point 12 °F    
Average Humidity 70    
Maximum Humidity 86    
Minimum Humidity 35    
Precipitation  
Precipitation 0.00 in - - ()
Sea Level Pressure  
Sea Level Pressure 29.78 in    
Wind  
Wind Speed 1 mph (East)    
Max Wind Speed 8 mph    
Max Gust Speed -    
Visibility 10 miles    
Events      
Averages and records for this station are not official NWS values.
T = Trace of Precipitation, MM = Missing Value Source: NWS Daily Summary

Daily Weather History Graph

Daily Weather History Graph

Search for Another Location

Airport:

Trip Planner

Search our weather history database for the weather conditions in past years. The results will help you decide how hot, cold, wet, or windy it might be!

Date:

Astronomy

Dec. 12, 2011 Rise Set
Actual Time 7:10 AM PST 4:37 PM PST
Civil Twilight 6:40 AM PST 5:07 PM PST
Nautical Twilight 6:07 AM PST 5:41 PM PST
Astronomical Twilight 5:34 AM PST 6:13 PM PST
Moon 6:53 PM PST (12/12) 8:46 AM PST (12/12)
Length of Visible Light 10h 26m
Length of Day
9h 26m
Waning Gibbous, 95% of the Moon is Illuminated
Dec 12
Waning Gibbous
Dec 17
Last Quarter
Dec 24
New
Dec 31
First Quarter
Jan 8
Full

Hourly Weather History & Observations

Time (PST) Temp. Windchill Dew Point Humidity Pressure Visibility Wind Dir Wind Speed Gust Speed Precip Events Conditions
12:15 AM 15.8 °F - 10.4 °F 79% 29.77 in 10.0 mi Calm Calm - N/A   Clear
12:35 AM 19.4 °F - 14.0 °F 80% 29.77 in 10.0 mi Calm Calm - N/A   Clear
12:55 AM 17.6 °F - 14.0 °F 86% 29.76 in 10.0 mi Calm Calm - N/A   Clear
1:15 AM 17.6 °F - 14.0 °F 86% 29.75 in 10.0 mi Calm Calm - N/A   Partly Cloudy
1:35 AM 17.6 °F - 14.0 °F 86% 29.75 in 10.0 mi Calm Calm - N/A   Clear
1:55 AM 17.6 °F - 14.0 °F 86% 29.75 in 10.0 mi Calm Calm - N/A   Clear
2:15 AM 19.4 °F - 14.0 °F 80% 29.75 in 10.0 mi Calm Calm - N/A   Clear
2:35 AM 17.6 °F - 14.0 °F 86% 29.74 in 10.0 mi Calm Calm - N/A   Clear
2:55 AM 17.6 °F - 14.0 °F 86% 29.74 in 10.0 mi Calm Calm - N/A   Clear
3:15 AM 17.6 °F - 14.0 °F 86% 29.73 in 10.0 mi Calm Calm - N/A   Clear
3:35 AM 17.6 °F - 14.0 °F 86% 29.72 in 10.0 mi Calm Calm - N/A   Clear
3:55 AM 17.6 °F - 14.0 °F 86% 29.72 in 10.0 mi Calm Calm - N/A   Clear
4:15 AM 17.6 °F - 12.2 °F 79% 29.72 in 10.0 mi Calm Calm - N/A   Clear
4:35 AM 17.6 °F - 14.0 °F 86% 29.72 in 10.0 mi Calm Calm - N/A   Clear
4:55 AM 14.0 °F - 10.4 °F 86% 29.72 in 10.0 mi Calm Calm - N/A   Clear
5:15 AM 15.8 °F - 10.4 °F 79% 29.71 in 10.0 mi Calm Calm - N/A   Partly Cloudy
5:35 AM 17.6 °F - 14.0 °F 86% 29.71 in 10.0 mi Calm Calm - N/A   Partly Cloudy
6:45 AM 15.8 °F - 12.2 °F 86% 29.73 in 10.0 mi Calm Calm - N/A   Scattered Clouds
7:45 AM 17.6 °F - 14.0 °F 86% 29.74 in 10.0 mi Calm Calm - N/A   Mostly Cloudy
8:45 AM 19.4 °F - 15.8 °F 86% 29.75 in 10.0 mi Calm Calm - N/A   Mostly Cloudy
10:55 AM 30.2 °F 26.7 °F 14.0 °F 51% 29.75 in 10.0 mi NW 3.5 mph - N/A   Mostly Cloudy
11:50 AM 35.6 °F 29.2 °F 12.2 °F 38% 29.73 in 10.0 mi NNE 8.1 mph - N/A   Mostly Cloudy
12:50 PM 35.6 °F 30.7 °F 10.4 °F 35% 29.72 in 10.0 mi ENE 5.8 mph - N/A   Mostly Cloudy
1:55 PM 35.6 °F 29.2 °F 10.4 °F 35% 29.72 in 10.0 mi NE 8.1 mph - N/A   Overcast
2:50 PM 33.8 °F 27.0 °F 10.4 °F 38% 29.73 in 10.0 mi ENE 8.1 mph - N/A   Overcast
3:50 PM 32.0 °F 24.8 °F 10.4 °F 41% 29.75 in 10.0 mi NE 8.1 mph - N/A   Mostly Cloudy
4:55 PM 28.4 °F 21.2 °F 10.4 °F 47% 29.77 in 10.0 mi North 6.9 mph - N/A   Clear
5:15 PM 28.4 °F 21.2 °F 10.4 °F 47% 29.78 in 10.0 mi North 6.9 mph - N/A   Clear
5:35 PM 26.6 °F 21.2 °F 10.4 °F 51% 29.79 in 10.0 mi SSE 4.6 mph - N/A   Clear
5:55 PM 24.8 °F - 10.4 °F 54% 29.79 in 10.0 mi Calm Calm - N/A   Clear
6:15 PM 24.8 °F - 10.4 °F 54% 29.80 in 10.0 mi Calm Calm - N/A   Clear
6:35 PM 23.0 °F - 10.4 °F 59% 29.80 in 10.0 mi Calm Calm - N/A   Clear
6:55 PM 23.0 °F - 10.4 °F 59% 29.80 in 10.0 mi Calm Calm - N/A   Clear
7:15 PM 23.0 °F - 10.4 °F 59% 29.81 in 10.0 mi Calm Calm - N/A   Clear
7:35 PM 17.6 °F 10.7 °F 8.6 °F 68% 29.81 in 10.0 mi SSW 4.6 mph - N/A   Clear
7:55 PM 17.6 °F 12.3 °F 8.6 °F 68% 29.82 in 10.0 mi East 3.5 mph - N/A   Clear
8:15 PM 19.4 °F 11.5 °F 10.4 °F 68% 29.82 in 10.0 mi SSE 5.8 mph - N/A   Clear
8:35 PM 15.8 °F 10.2 °F 8.6 °F 73% 29.83 in 10.0 mi South 3.5 mph - N/A   Clear
8:55 PM 17.6 °F - 10.4 °F 73% 29.83 in 10.0 mi Calm Calm - N/A   Clear
9:15 PM 19.4 °F 14.3 °F 10.4 °F 68% 29.84 in 10.0 mi SE 3.5 mph - N/A   Clear
9:35 PM 17.6 °F - 10.4 °F 73% 29.85 in 10.0 mi Calm Calm - N/A   Clear
9:55 PM 15.8 °F 10.2 °F 10.4 °F 79% 29.85 in 10.0 mi SSW 3.5 mph - N/A   Clear
10:15 PM 19.4 °F - 10.4 °F 68% 29.85 in 10.0 mi Calm Calm - N/A   Clear
10:35 PM 15.8 °F 10.2 °F 10.4 °F 79% 29.86 in 10.0 mi SSE 3.5 mph - N/A   Clear
10:55 PM 15.8 °F - 10.4 °F 79% 29.86 in 10.0 mi Calm Calm - N/A   Clear
11:15 PM 15.8 °F - 10.4 °F 79% 29.86 in 10.0 mi Calm Calm - N/A   Clear
11:35 PM 14.0 °F - 8.6 °F 79% 29.87 in 10.0 mi Calm Calm - N/A   Clear
11:55 PM 14.0 °F - 6.8 °F 73% 29.87 in 10.0 mi Calm Calm - N/A   Clear